Tracking 27086 objects as of 22-Mar-2023
HD Live streaming from Space Station
objects crossing your sky now

STARLINK-5084

Track STARLINK-5084 now!
10-day predictions
STARLINK-5084 is classified as:


NORAD ID: 54851
Int'l Code: 2022-177AH
Perigee: 565.2 km
Apogee: 567.2 km
Inclination: 43.0 °
Period: 95.8 minutes
Semi major axis: 6937 km
RCS: Unknown
Launch date: December 28, 2022
Source: United States (US)
Launch site: AIR FORCE EASTERN TEST RANGE (AFETR)
Your satellite tracking list
Your tracking list is empty




NASA's NSSDC Master Catalog

Two Line Element Set (TLE):
1 54851U 22177AH  23081.17956118 -.00001012  00000-0 -59810-4 0  9997
2 54851  43.0027 248.1180 0001410 274.1391  85.9290 15.02537717 13137
Source of the keplerian elements: AFSPC